Regional Weather Roundup
Issued by NWS

Home | Current Version | Previous Version | Text Only | Print | Product List | Glossary On
Versions: 1 2 3 4 5 6 7 8 9 10 11 12 13 14 15 16 17 18 19 20 21 22 23 24 25 26 27 28 29 30 31 32 33 34 35 36 37 38 39 40 41 42 43 44 45 46 47 48 49 50
000
ASUS45 KBOU 270607
RWRCO

WEATHER ROUNDUP FOR COLORADO
NATIONAL WEATHER SERVICE DENVER/BOULDER CO
1100 PM MST WED NOV 26 2014

NOTE: "FAIR" INDICATES FEW OR NO CLOUDS BELOW 12000 FEET WITH NO
SIGNIFICANT WEATHER AND/OR OBSTRUCTIONS TO VISIBILITY.

COZ001>005-013-030-031-270700-
...NORTHWEST COLORADO...

CITY           SKY/WX    TMP DP  RH WIND       PRES   REMARKS
CRAIG          MOCLDY    29  24  82 SE5       30.41S WCI  24
HAYDEN         PTCLDY    28  21  74 E5        30.41S WCI  23
MEEKER         PTCLDY    25  21  85 NE3       30.44F
MOUNT WERNER   NOT AVBL
STEAMBOAT SPGS PTCLDY    31  29  94 CALM      30.42S
WALDEN         MOCLDY    34  21  60 SW15      30.36S WCI  24
$$

COZ006>008-011-270700-
...WEST CENTRAL VALLEYS...

CITY           SKY/WX    TMP DP  RH WIND       PRES   REMARKS
GRAND JUNCTION PTCLDY    31  23  72 E7        30.44R WCI  24
MONTROSE       CLEAR     27  22  81 S5        30.48R WCI  22
EAGLE          CLEAR     28  27  93 E6        30.49R WCI  22
RIFLE          PTCLDY    25  21  85 S3        30.48R
DELTA          CLEAR     32  24  73 CALM      30.47S
NUCLA          CLEAR     32  27  80 SE9       30.51R WCI  24
$$

COZ017>023-064>068-270700-
...SOUTHWEST COLORADO...

CITY           SKY/WX    TMP DP  RH WIND       PRES   REMARKS
DURANGO        CLEAR     26  19  74 VRB3      30.46R
CORTEZ         CLEAR     26  19  74 NE9       30.47R WCI  17
PAGOSA SPRINGS CLEAR     25  18  73 CALM      30.49R
TELLURIDE      NOT AVBL
WOLF CREEK PAS CLEAR     28   5  37 MISG      30.57R
$$

COZ009-010-012-014-032>034-037-058>063-270700-
...CENTRAL COLORADO...

CITY           SKY/WX    TMP DP  RH WIND       PRES   REMARKS
ASPEN          CLEAR     22  18  85 S6        30.47S WCI  14
BUENA VISTA    PTCLDY    39  20  46 NW10G22   30.40R
COPPER MTN     CLEAR     25  19  80 W26G36    30.50R WCI   9
BERTHOUD PASS  NOT AVBL
COTTONWOOD PAS PTCLDY    41   7  24 W16G41    30.42R
GUNNISON       PTCLDY    23  18  80 CALM      30.51R
KREMMLING      CLEAR     34  23  64 W5        30.44R WCI  30
LEADVILLE      CLEAR     24  15  68 VRB7      30.47R WCI  16
MONARCH PASS   MOCLDY    19  18  93 MISG      30.58R
SALIDA         PTCLDY    43  20  40 W12G17    30.47R
SUNLIGHT       PTCLDY    28  27  93 CALM      30.53S
WILKERSON PASS PTCLDY    28  12  50 W6        30.46R WCI  22
$$

COZ069>075-270700-
...SAN LUIS VALLEY/SANGRE DE CRISTO MOUNTAINS...

CITY           SKY/WX    TMP DP  RH WIND       PRES   REMARKS
ALAMOSA        PTCLDY    17  13  84 SE6       30.46R WCI   9
LA VETA PASS   PTCLDY    30  19  64 S16G29    30.42F WCI  19
SAGUACHE       PTCLDY    32  25  74 N6        30.48R WCI  26
$$

COZ035-036-038>040-270700-
...NORTHERN COLORADO FRONT RANGE...

CITY           SKY/WX    TMP DP  RH WIND       PRES   REMARKS
DENVER INTL AP PTCLDY    26  23  88 SW7       30.25R WCI  18
DMNS CITY PARK   N/A     26  23  89 S3        30.27R
AURORA         PTCLDY    26  22  86 S2        30.26R
FRONT RANGE AP PTCLDY    32  28  86 SW6       30.26S WCI  26
ERIE MUNI ARPT PTCLDY    20  19  96 CALM      30.27S
BOULDER MUN AP PTCLDY    27  25  93 CALM      30.26S
CENTENNIAL     PTCLDY    29  22  75 CALM      30.25R
BROOMFIELD     PTCLDY    27  25  93 NW5       30.26R WCI  21
FORT COLLINS   PTCLDY    23  19  86 NW5       30.28R WCI  17
LONGMONT       PTCLDY    24  22  90 CALM      30.29R
$$

COZ041-046-047-076>085-087-088-270700-
...PIKES PEAK/PALMER DIVIDE AND SOUTHERN FOOTHILLS...

CITY           SKY/WX    TMP DP  RH WIND       PRES   REMARKS
COLO. SPRINGS  PTCLDY    27  22  81 CALM      30.33S
A. F. ACADEMY  PTCLDY    21  19  89 N6        30.31S WCI  14
ELLICOTT       NOT AVBL
FALCON         NOT AVBL
FORT CARSON    PTCLDY    22  19  90 NW6       30.31S WCI  14
LIMON          CLEAR     28  20  71 VRB7      30.31R WCI  21
MONUMENT HILL  CLEAR     32  21  64 SW10      30.28R WCI  24
TRINIDAD       PTCLDY    28  24  85 W6        30.32R WCI  22
$$

COZ042>045-048>051-090-091-270700-
...NORTHEAST COLORADO...

CITY           SKY/WX    TMP DP  RH WIND       PRES   REMARKS
GREELEY ARPT   PTCLDY    19  12  73 NW3       30.29R
AKRON          PTCLDY    22  20  92 S13       30.27F WCI  10
BURLINGTON     PTCLDY    22  18  85 S12       30.33S WCI  10
WRAY           CLEAR     26  24  93 S5        30.32F WCI  20
STERLING       PTCLDY    21  19  93 NW3       30.27F
HOLYOKE        CLEAR     25  23  93 S3        30.31S
FORT MORGAN    PTCLDY    22  21  93 NE3       30.27S
$$

COZ086-089-092>099-270700-
...SOUTHEAST COLORADO...

CITY           SKY/WX    TMP DP  RH WIND       PRES   REMARKS
PUEBLO         CLEAR     27  22  81 N7        30.33S WCI  19
LA JUNTA       PTCLDY    25  20  81 N5        30.33R WCI  19
LAMAR          CLEAR     23  17  78 NE5       30.34F WCI  17
SPRINGFIELD      N/A     23  18  81 S7        30.35R WCI  15
$$



USA.gov is the U.S. government's official web portal to all federal, state and local government web resources and services.